GW5369 Weather Reports


time (UTC)temp
C
wind
direction
speed
KPH
gust
KPH
rain 1hr
cm
rain 24hr
cm
rain mn
cm
humidity
%
barometer
mb
20260906114525 22 13 0.0 1.6 0.00 0.30 0.00 93 1011.6
20260906114003 22 13 0.0 3.2 0.00 0.30 0.00 93 1011.6
20260906113506 21 13 0.0 3.2 0.00 0.30 0.00 93 1011.6
20260906113018 21 13 0.0 3.2 0.00 0.30 0.00 93 1011.5
20260906112508 21 13 0.0 3.2 0.00 0.30 0.00 93 1011.4
20260906112008 21 13 0.0 3.2 0.00 0.30 0.00 93 1011.4
20260906111532 21 13 0.0 3.2 0.00 0.30 0.00 93 1011.3
20260906111011 21 13 0.0 1.6 0.00 0.30 0.00 93 1011.4
20260906110512 21 13 0.0 3.2 0.00 0.30 0.00 93 1011.3
20260906110028 21 13 0.0 3.2 0.00 0.30 0.00 93 1011.3
20260906105514 21 13 1.6 3.2 0.00 0.30 0.00 93 1011.3
20260906105011 21 10 0.0 3.2 0.00 0.30 0.00 93 1011.3
20260906104534 21 10 0.0 3.2 0.00 0.30 0.00 93 1011.3
20260906104012 21 10 0.0 3.2 0.00 0.30 0.00 93 1011.2
20260906103504 21 10 0.0 3.2 0.00 0.30 0.00 93 1011.2
20260906103012 22 10 1.6 3.2 0.00 0.30 0.00 93 1011.2
20260906102513 22 10 1.6 3.2 0.00 0.30 0.00 93 1011.1
20260906102008 22 10 0.0 3.2 0.00 0.30 0.00 93 1011.0
20260906101521 22 13 0.0 3.2 0.00 0.30 0.00 93 1010.9
20260906101009 22 13 1.6 3.2 0.00 0.30 0.00 93 1010.8
20260906100512 22 13 0.0 3.2 0.00 0.30 0.00 93 1010.8
20260906100029 22 13 0.0 4.8 0.00 0.30 0.00 93 1010.6
20260906095515 22 13 1.6 4.8 0.00 0.30 0.00 92 1010.5
20260906095016 22 13 0.0 4.8 0.00 0.30 0.00 92 1010.5
20260906094553 22 13 0.0 4.8 0.00 0.30 0.00 93 1010.4
20260906094016 22 13 1.6 4.8 0.00 0.30 0.00 93 1010.4
20260906093516 22 13 0.0 3.2 0.00 0.30 0.00 93 1010.4
20260906093042 22 13 0.0 3.2 0.00 0.30 0.00 93 1010.6
20260906092517 22 13 1.6 3.2 0.00 0.30 0.00 93 1010.4
20260906092008 22 13 0.0 3.2 0.00 0.30 0.00 93 1010.4
20260906091515 22 13 0.0 4.8 0.00 0.30 0.00 93 1010.5
20260906091011 22 10 1.6 4.8 0.00 0.30 0.00 92 1010.4
20260906090510 22 11 1.6 3.2 0.00 0.30 0.00 92 1010.5
20260906090003 22 11 1.6 3.2 0.00 0.30 0.00 92 1010.4
20260906085503 22 11 1.6 4.8 0.00 0.30 0.00 92 1010.4
20260906085001 22 350 1.6 4.8 0.00 0.30 0.00 92 1010.5
20260906084504 22 5 1.6 4.8 0.00 0.30 0.00 92 1010.6
20260906084004 22 352 1.6 3.2 0.00 0.30 0.00 92 1010.5
20260906083504 22 5 1.6 3.2 0.00 0.30 0.00 92 1010.6
20260906083008 22 5 0.0 3.2 0.00 0.30 0.00 92 1010.6
20260906082504 22 5 1.6 3.2 0.00 0.30 0.00 92 1010.6
20260906082004 22 360 1.6 3.2 0.00 0.30 0.00 92 1010.4
20260906081501 22 360 0.0 3.2 0.00 0.30 0.00 92 1010.4
20260906081001 22 360 1.6 4.8 0.00 0.30 0.00 92 1010.5
20260906080501 22 348 1.6 4.8 0.00 0.30 0.00 92 1010.4
20260906080004 22 52 0.0 3.2 0.00 0.30 0.00 92 1010.4
20260906075501 22 52 0.0 3.2 0.00 0.30 0.00 92 1010.5
20260906075000 22 52 0.0 3.2 0.00 0.30 0.00 92 1010.6
20260906074505 22 52 0.0 1.6 0.00 0.30 0.00 92 1010.6
20260906074003 22 52 0.0 3.2 0.00 0.30 0.00 92 1010.7
20260906073500 22 52 0.0 3.2 0.00 0.30 0.00 92 1010.7
20260906073004 22 52 0.0 1.6 0.00 0.30 0.00 92 1010.7
20260906072504 22 52 0.0 3.2 0.00 0.30 0.00 92 1010.8
20260906072003 22 52 0.0 3.2 0.00 0.30 0.00 92 1010.8
20260906071508 22 30 1.6 3.2 0.00 0.30 0.00 92 1010.7
20260906071004 22 130 0.0 3.2 0.00 0.30 0.00 92 1010.7
20260906070506 22 351 0.0 3.2 0.00 0.30 0.00 92 1010.8
20260906070000 22 351 0.0 3.2 0.00 0.30 0.00 91 1010.8
20260906065501 22 351 0.0 3.2 0.00 0.30 0.00 92 1010.9
20260906065002 23 351 1.6 4.8 0.00 0.30 0.00 91 1010.9
20260906064501 23 360 0.0 4.8 0.00 0.30 0.00 91 1011.0
20260906064003 23 352 1.6 4.8 0.00 0.30 0.00 91 1010.9
20260906063501 23 5 3.2 6.4 0.00 0.30 0.00 92 1010.8
20260906063005 23 331 3.2 8.0 0.00 0.30 0.00 92 1010.7
20260906062503 23 5 1.6 8.0 0.00 0.30 0.00 92 1010.7
20260906062004 23 11 3.2 8.0 0.00 0.30 0.00 91 1010.7
20260906061510 23 360 3.2 8.0 0.00 0.30 0.00 91 1010.6
20260906061003 23 352 3.2 8.0 0.00 0.30 0.00 91 1010.7
20260906060503 23 343 3.2 8.0 0.00 0.30 0.00 91 1010.8
20260906060016 23 18 3.2 8.0 0.00 0.30 0.00 91 1010.7
20260906055507 23 351 3.2 8.0 0.00 0.30 0.00 91 1010.7
20260906055009 23 352 1.6 6.4 0.00 0.30 0.00 91 1010.8
20260906054519 23 360 1.6 6.4 0.00 0.30 0.00 91 1010.9
20260906054003 23 352 1.6 4.8 0.00 0.30 0.00 91 1010.9
20260906053503 23 349 1.6 4.8 0.00 0.30 0.00 91 1010.8
20260906053009 23 345 1.6 4.8 0.00 0.30 0.00 91 1010.8
20260906052500 23 340 1.6 3.2 0.00 0.30 0.00 91 1010.7
20260906052004 23 339 1.6 6.4 0.00 0.30 0.00 91 1010.8
20260906051505 23 340 1.6 6.4 0.00 0.30 0.00 91 1010.6
20260906051004 23 352 0.0 4.8 0.00 0.30 0.00 91 1010.5
20260906050504 23 352 1.6 6.4 0.00 0.30 0.00 91 1010.4
20260906050011 23 340 1.6 6.4 0.00 0.30 0.00 91 1010.4
20260906045508 23 314 3.2 8.0 0.00 0.30 0.00 91 1010.4
20260906045007 23 352 3.2 8.0 0.00 0.30 0.00 91 1010.4
20260906044518 23 360 1.6 3.2 0.00 0.30 0.00 91 1010.6
20260906044007 23 334 1.6 3.2 0.00 0.30 0.00 91 1010.7
20260906043510 23 19 1.6 3.2 0.00 0.30 0.00 91 1010.8
20260906043026 24 352 0.0 3.2 0.00 0.30 0.00 91 1011.0
20260906042503 24 24 0.0 3.2 0.00 0.30 0.00 92 1011.1
20260906042000 24 84 0.0 8.0 0.00 0.30 0.00 92 1011.2
20260906041506 24 296 1.6 8.0 0.00 0.30 0.00 92 1011.3
20260906041005 23 227 1.6 8.0 0.00 0.30 0.00 92 1011.4
20260906040503 23 194 3.2 6.4 0.00 0.30 0.00 92 1011.6
20260906040016 24 184 1.6 6.4 0.00 0.30 0.00 92 1011.6
20260906035505 24 187 1.6 4.8 0.00 0.30 0.30 93 1011.7
20260906035004 23 201 0.0 4.8 0.00 0.30 0.30 93 1011.6
20260906034516 23 172 1.6 6.4 0.00 0.30 0.30 93 1011.6
20260906034008 23 186 3.2 6.4 0.00 0.30 0.30 93 1011.8
20260906033507 23 173 3.2 6.4 0.00 0.30 0.30 93 1011.9
20260906033032 23 300 0.0 1.6 0.00 0.30 0.30 93 1011.7
20260906032509 23 300 0.0 1.6 0.00 0.30 0.30 93 1011.8
20260906032011 23 16 0.0 1.6 0.00 0.30 0.30 93 1011.9
20260906031536 23 16 0.0 1.6 0.00 0.30 0.30 93 1012.2
20260906031011 23 16 0.0 1.6 0.00 0.30 0.30 93 1012.4
20260906030504 23 16 0.0 1.6 0.00 0.30 0.30 93 1012.2
20260906030009 23 16 0.0 1.6 0.00 0.30 0.30 93 1012.0
20260906025503 23 16 0.0 3.2 0.00 0.30 0.30 92 1011.8
20260906025003 23 16 0.0 3.2 0.00 0.30 0.30 92 1011.7
20260906024526 23 16 0.0 3.2 0.00 0.30 0.30 93 1011.8
20260906024006 22 26 0.0 3.2 0.00 0.30 0.30 92 1011.6
20260906023506 23 26 0.0 3.2 0.00 0.30 0.30 93 1011.9
20260906023019 22 5 0.0 3.2 0.00 0.30 0.30 93 1011.9
20260906022509 22 5 0.0 1.6 0.00 0.30 0.30 93 1011.7
20260906022008 22 5 0.0 1.6 0.00 0.30 0.30 92 1011.7
20260906021526 22 5 0.0 1.6 0.00 0.30 0.30 92 1011.9
20260906021011 22 5 0.0 1.6 0.00 0.30 0.30 92 1011.9
20260906020513 22 5 0.0 1.6 0.00 0.30 0.30 92 1012.1
20260906020030 22 5 0.0 3.2 0.00 0.30 0.30 92 1012.3
20260906015511 22 5 0.0 3.2 0.00 0.30 0.30 92 1012.2
20260906015003 22 5 0.0 3.2 0.00 0.30 0.30 92 1012.1
20260906014510 22 5 0.0 3.2 0.00 0.30 0.30 92 1012.1
20260906014003 22 16 1.6 3.2 0.00 0.30 0.30 92 1011.9
20260906013506 22 22 0.0 3.2 0.00 0.30 0.30 92 1012.2
20260906013034 22 22 0.0 3.2 0.00 0.30 0.30 92 1012.2
20260906012510 22 60 0.0 6.4 0.00 0.30 0.30 92 1012.2
20260906012006 22 31 1.6 6.4 0.00 0.30 0.30 92 1012.3
20260906011520 22 84 1.6 6.4 0.00 0.30 0.30 92 1012.2
20260906011011 22 14 1.6 6.4 0.00 0.30 0.30 92 1012.1
20260906010511 22 46 1.6 4.8 0.00 0.30 0.30 92 1012.1
20260906010028 22 45 1.6 4.8 0.00 0.30 0.30 92 1011.9
20260906005513 23 42 0.0 3.2 0.00 0.30 0.30 92 1011.7
20260906005015 23 55 0.0 3.2 0.00 0.30 0.30 92 1011.5
20260906004530 23 55 0.0 3.2 0.00 0.30 0.30 92 1011.2
20260906004015 23 31 1.6 3.2 0.00 0.30 0.30 92 1011.1
20260906003516 23 352 0.0 3.2 0.00 0.30 0.30 92 1011.2
20260906003013 23 352 0.0 3.2 0.00 0.30 0.30 92 1011.4
20260906002504 23 34 0.0 1.6 0.00 0.30 0.30 92 1011.2
20260906002008 23 34 0.0 3.2 0.00 0.30 0.30 92 1011.2
20260906001521 23 34 0.0 3.2 0.00 0.30 0.30 91 1011.1
20260906001008 22 30 0.0 3.2 0.05 0.30 0.30 91 1011.0
20260906000510 22 30 0.0 3.2 0.13 0.30 0.30 91 1011.0
20260906000026 23 30 0.0 3.2 0.25 0.30 0.30 91 1010.9
20260905235514 23 147 0.0 3.2 0.30 0.30 0.30 91 1010.6
20260905235013 23 147 0.0 4.8 0.30 0.30 0.30 91 1010.8
20260905234532 23 193 0.0 4.8 0.30 0.30 0.30 91 1011.1
20260905234014 22 158 1.6 3.2 0.30 0.30 0.30 91 1011.1
20260905233521 22 184 1.6 3.2 0.30 0.30 0.30 90 1011.7
20260905233005 22 71 0.0 3.2 0.30 0.30 0.30 90 1012.0
20260905232504 22 36 0.0 4.8 0.30 0.30 0.30 89 1012.2
20260905232004 23 134 0.0 4.8 0.30 0.30 0.30 89 1012.1
20260905231514 23 217 1.6 8.0 0.30 0.30 0.30 87 1012.5
20260905231008 23 196 3.2 14.5 0.25 0.25 0.25 85 1011.6
20260905230507 25 137 3.2 29.0 0.18 0.18 0.18 82 1012.0
20260905230004 27 17 9.7 30.6 0.05 0.05 0.05 79 1012.4
20260905225502 28 352 9.7 30.6 0.00 0.00 0.00 79 1012.4
20260905225003 29 352 4.8 12.9 0.00 0.00 0.00 85 1012.1
20260905224506 29 188 1.6 11.3 0.00 0.00 0.00 86 1011.2
20260905224003 29 205 3.2 11.3 0.00 0.00 0.00 85 1010.9
20260905223503 29 188 4.8 16.1 0.00 0.00 0.00 85 1010.3
20260905223009 29 207 6.4 16.1 0.00 0.00 0.00 84 1009.6
20260905222504 29 140 4.8 11.3 0.00 0.00 0.00 84 1009.8
20260905222004 29 182 3.2 11.3 0.00 0.00 0.00 84 1010.2
20260905221513 29 190 3.2 9.7 0.00 0.00 0.00 85 1010.4
20260905221006 29 188 3.2 11.3 0.00 0.00 0.00 84 1010.1
20260905220505 30 192 4.8 11.3 0.00 0.00 0.00 84 1010.2
20260905220015 30 173 1.6 9.7 0.00 0.00 0.00 84 1009.8
20260905215509 30 156 3.2 9.7 0.00 0.00 0.00 84 1009.6
20260905215008 30 107 3.2 12.9 0.00 0.00 0.00 83 1009.6
20260905214526 30 178 4.8 12.9 0.00 0.00 0.00 83 1009.7
20260905214003 30 190 4.8 12.9 0.00 0.00 0.00 83 1009.6
20260905213503 30 161 4.8 11.3 0.00 0.00 0.00 83 1009.6
20260905213006 30 177 4.8 9.7 0.00 0.00 0.00 82 1009.6
20260905212504 31 186 3.2 9.7 0.00 0.00 0.00 83 1009.5
20260905212003 31 167 3.2 9.7 0.00 0.00 0.00 82 1009.7
20260905211508 31 159 4.8 9.7 0.00 0.00 0.00 82 1009.7
20260905211003 31 214 3.2 14.5 0.00 0.00 0.00 82 1009.8
20260905210503 31 234 3.2 14.5 0.00 0.00 0.00 83 1009.8
20260905210013 30 148 4.8 11.3 0.00 0.00 0.00 82 1009.7
20260905205508 31 188 4.8 9.7 0.00 0.00 0.00 82 1009.6
20260905205010 31 193 4.8 12.9 0.00 0.00 0.00 81 1009.5
20260905204527 31 178 3.2 12.9 0.00 0.00 0.00 81 1009.6
20260905204011 31 163 8.0 12.9 0.00 0.00 0.00 81 1009.7
20260905203510 31 250 4.8 9.7 0.00 0.00 0.00 82 1009.6
20260905203027 31 169 3.2 9.7 0.00 0.00 0.00 82 1009.5
20260905202503 31 188 4.8 11.3 0.00 0.00 0.00 82 1009.6
20260905202003 31 198 6.4 14.5 0.00 0.00 0.00 82 1009.6
20260905201508 31 209 4.8 14.5 0.00 0.00 0.00 81 1009.7
20260905201004 31 171 3.2 11.3 0.00 0.00 0.00 81 1009.7
20260905200504 31 211 4.8 11.3 0.00 0.00 0.00 80 1009.7
20260905200017 31 154 3.2 14.5 0.00 0.00 0.00 81 1009.7
20260905195503 31 206 6.4 14.5 0.00 0.00 0.00 80 1009.7
20260905195011 31 219 4.8 16.1 0.00 0.00 0.00 81 1009.8
20260905194517 31 192 3.2 17.7 0.00 0.00 0.00 80 1009.8
20260905194008 31 196 6.4 17.7 0.00 0.00 0.00 80 1009.8
20260905193507 31 193 4.8 12.9 0.00 0.00 0.00 80 1009.9
20260905193026 31 178 6.4 17.7 0.00 0.00 0.00 80 1010.1
20260905192515 31 175 6.4 17.7 0.00 0.00 0.00 80 1010.1
20260905192012 31 169 9.7 16.1 0.00 0.00 0.00 79 1010.2
20260905191530 31 196 4.8 16.1 0.00 0.00 0.00 81 1010.3
20260905191013 31 192 4.8 16.1 0.00 0.00 0.00 80 1010.6
20260905190501 31 192 6.4 16.1 0.00 0.00 0.00 79 1010.7
20260905190010 31 184 6.4 16.1 0.00 0.00 0.00 80 1010.8
20260905185505 31 152 8.0 16.1 0.00 0.00 0.00 79 1010.8
20260905185005 31 200 6.4 16.1 0.00 0.00 0.00 79 1011.0
20260905184514 31 183 8.0 16.1 0.00 0.00 0.00 78 1011.1
20260905184004 31 224 6.4 16.1 0.00 0.00 0.00 78 1011.2
20260905183510 32 190 4.8 11.3 0.00 0.00 0.00 77 1011.3
20260905183021 32 202 4.8 11.3 0.00 0.00 0.00 78 1011.4
20260905182510 31 188 3.2 11.3 0.00 0.00 0.00 77 1011.3
20260905182011 32 216 4.8 11.3 0.00 0.00 0.00 77 1011.3
20260905181529 31 269 4.8 12.9 0.00 0.00 0.00 78 1011.4
20260905181017 31 221 3.2 12.9 0.00 0.00 0.00 77 1011.5
20260905180516 32 187 4.8 11.3 0.00 0.00 0.00 77 1011.5
20260905180030 31 162 3.2 11.3 0.00 0.00 0.00 79 1011.7
20260905175517 31 225 6.4 11.3 0.00 0.00 0.00 78 1011.7
20260905175006 31 183 3.2 14.5 0.00 0.00 0.00 78 1011.7
20260905174512 31 213 1.6 14.5 0.00 0.00 0.00 78 1011.8
20260905174004 31 176 3.2 11.3 0.00 0.00 0.00 78 1011.8
20260905173504 31 193 4.8 11.3 0.00 0.00 0.00 78 1011.9
20260905173015 31 183 4.8 12.9 0.00 0.00 0.00 78 1012.0
20260905172508 31 202 3.2 12.9 0.00 0.00 0.00 79 1012.0
20260905172010 31 200 3.2 11.3 0.00 0.00 0.00 78 1012.1
20260905171524 31 244 4.8 11.3 0.00 0.00 0.00 78 1012.2
20260905171012 31 234 4.8 11.3 0.00 0.00 0.00 78 1012.2
20260905170512 31 167 4.8 12.9 0.00 0.00 0.00 78 1012.2
20260905170032 31 182 4.8 12.9 0.00 0.00 0.00 78 1012.3
20260905165512 31 221 3.2 12.9 0.00 0.00 0.00 78 1012.4
20260905165018 31 167 3.2 9.7 0.00 0.00 0.00 78 1012.3
20260905164533 31 145 1.6 8.0 0.00 0.00 0.00 78 1012.4
20260905164017 31 193 3.2 8.0 0.00 0.00 0.00 79 1012.4
20260905163515 31 169 1.6 11.3 0.00 0.00 0.00 78 1012.6
20260905163015 31 167 3.2 11.3 0.00 0.00 0.00 79 1012.7
20260905162508 31 146 3.2 8.0 0.00 0.00 0.00 78 1012.7
20260905162010 31 113 1.6 6.4 0.00 0.00 0.00 79 1012.7
20260905161523 31 193 3.2 8.0 0.00 0.00 0.00 79 1012.9
20260905161011 31 329 3.2 8.0 0.00 0.00 0.00 78 1013.0
20260905160511 31 107 1.6 8.0 0.00 0.00 0.00 79 1013.0
20260905160029 30 225 3.2 9.7 0.00 0.00 0.00 79 1013.2
20260905155512 30 112 3.2 9.7 0.00 0.00 0.00 80 1013.2
20260905155012 30 210 4.8 9.7 0.00 0.00 0.00 80 1013.2
20260905154530 30 165 3.2 8.0 0.00 0.00 0.00 80 1013.3
20260905154017 30 225 3.2 9.7 0.00 0.00 0.00 80 1013.3
20260905153516 30 203 1.6 9.7 0.00 0.00 0.00 80 1013.5
20260905153034 30 193 3.2 8.0 0.00 0.00 0.00 80 1013.5
20260905152519 30 211 1.6 8.0 0.00 0.00 0.00 80 1013.4
20260905152017 30 172 3.2 8.0 0.00 0.00 0.00 81 1013.6
20260905151514 30 169 3.2 9.7 0.00 0.00 0.00 81 1013.6
20260905151008 30 193 3.2 11.3 0.00 0.00 0.00 81 1013.6
20260905150509 30 229 1.6 11.3 0.00 0.00 0.00 82 1013.7
20260905150027 30 225 1.6 9.7 0.00 0.00 0.00 82 1013.6
20260905145509 30 148 3.2 9.7 0.00 0.00 0.00 81 1013.6
20260905145015 30 315 3.2 8.0 0.00 0.00 0.00 81 1013.5
20260905144529 30 90 1.6 8.0 0.00 0.00 0.00 81 1013.6
20260905144013 30 206 3.2 8.0 0.00 0.00 0.00 80 1013.7
20260905143520 30 177 3.2 8.0 0.00 0.00 0.00 80 1013.8
20260905143000 30 178 1.6 8.0 0.00 0.00 0.00 81 1013.7
20260905142501 30 190 1.6 9.7 0.00 0.00 0.00 80 1013.6
20260905142002 30 161 4.8 9.7 0.00 0.00 0.00 80 1013.6
20260905141504 30 217 3.2 8.0 0.00 0.00 0.00 80 1013.8
20260905141001 29 269 3.2 12.9 0.00 0.00 0.00 81 1013.8
20260905140500 29 219 3.2 12.9 0.00 0.00 0.00 80 1013.9
20260905140004 29 234 1.6 8.0 0.00 0.00 0.00 81 1013.8
20260905135501 29 180 1.6 8.0 0.00 0.00 0.00 81 1013.8
20260905135000 29 213 1.6 6.4 0.00 0.00 0.00 81 1013.7
20260905134504 29 296 3.2 6.4 0.00 0.00 0.00 81 1013.9
20260905134004 29 27 1.6 8.0 0.00 0.00 0.00 82 1013.9
20260905133504 28 22 3.2 8.0 0.00 0.00 0.00 83 1013.8
20260905133003 28 213 1.6 12.9 0.00 0.00 0.00 83 1013.8
20260905132502 28 188 3.2 12.9 0.00 0.00 0.00 84 1013.8
20260905132002 28 228 4.8 11.3 0.00 0.00 0.00 83 1013.8
20260905131504 28 235 3.2 8.0 0.00 0.00 0.00 84 1013.9
20260905131000 28 25 1.6 8.0 0.00 0.00 0.00 85 1013.9
20260905130501 27 212 1.6 4.8 0.00 0.00 0.00 85 1014.0
20260905130004 27 213 1.6 8.0 0.00 0.00 0.00 86 1014.0
20260905125503 27 26 1.6 11.3 0.00 0.00 0.00 87 1014.1
20260905125002 27 208 4.8 11.3 0.00 0.00 0.00 87 1014.0
20260905124505 27 325 0.0 8.0 0.00 0.00 0.00 88 1014.0
20260905124006 26 232 1.6 12.9 0.00 0.00 0.00 89 1013.9
20260905123503 26 190 4.8 12.9 0.00 0.00 0.00 89 1013.9
20260905123013 26 193 1.6 9.7 0.00 0.00 0.00 89 1013.8
20260905122503 26 273 3.2 8.0 0.00 0.00 0.00 90 1013.8
20260905122003 26 226 3.2 9.7 0.00 0.00 0.00 90 1013.9
20260905121503 26 215 3.2 11.3 0.00 0.00 0.00 90 1014.0
20260905121001 26 194 3.2 11.3 0.00 0.00 0.00 90 1014.0
20260905120504 26 223 3.2 6.4 0.00 0.00 0.00 90 1014.0
20260905120004 26 211 1.6 8.0 0.00 0.00 0.00 90 1013.8
20260905115500 26 153 1.6 8.0 0.00 0.00 0.00 90 1013.8
20260905115006 26 277 1.6 4.8 0.00 0.00 0.00 90 1013.8